Location: ????? ????
(37.9717°N, 23.4051°E)
Time: 14:27:56
(UTC+00:00)

Cosmos 2297 Rocket - Pass Details

Date: 18 April 2024
Orbit: 841 x 841 km, 71.0° (Epoch: 17 May)

Event Time Altitude Azimuth Distance (km) Brightness Sun altitude
Rises 20:34:22 0° 326° (NNW) 3,400 6.4 -34.3°
Reaches altitude 10° 20:37:03 10° 317° (NW) 2,462 5.4 -34.6°
Enters shadow 20:40:47 28° 279° (W) 1,516 3.7 -35.0°
